| time (UTC) | temp F | wind direction | speed MPH | gust MPH | rain 1hr in | rain 24hr in | rain mn in | humidity % | barometer mb |
| 20260902204550 | 59 | 138 | 11.0 | 16.0 | 0.04 | 0.11 | 0.09 | 89 | 1004.6 |
| 20260902204023 | 59 | 122 | 10.0 | 17.0 | 0.05 | 0.11 | 0.09 | 89 | 1004.6 |
| 20260902203525 | 59 | 144 | 7.0 | 17.0 | 0.04 | 0.10 | 0.08 | 89 | 1004.8 |
| 20260902203101 | 59 | 156 | 6.0 | 14.0 | 0.05 | 0.10 | 0.08 | 89 | 1004.7 |
| 20260902202524 | 59 | 141 | 8.0 | 14.0 | 0.05 | 0.10 | 0.08 | 89 | 1004.7 |
| 20260902202024 | 59 | 146 | 7.0 | 16.0 | 0.05 | 0.10 | 0.08 | 89 | 1004.9 |
| 20260902201546 | 59 | 121 | 8.0 | 16.0 | 0.05 | 0.09 | 0.07 | 89 | 1004.8 |
| 20260902201024 | 59 | 136 | 7.0 | 14.0 | 0.05 | 0.09 | 0.07 | 89 | 1004.8 |
| 20260902200526 | 60 | 140 | 6.0 | 12.0 | 0.04 | 0.08 | 0.06 | 89 | 1004.9 |
| 20260902200056 | 60 | 109 | 8.0 | 12.0 | 0.04 | 0.08 | 0.06 | 89 | 1005.0 |
| 20260902195526 | 60 | 130 | 5.0 | 14.0 | 0.04 | 0.08 | 0.06 | 89 | 1005.0 |
| 20260902195024 | 60 | 121 | 7.0 | 14.0 | 0.03 | 0.07 | 0.05 | 88 | 1005.1 |
| 20260902194547 | 60 | 134 | 7.0 | 13.0 | 0.04 | 0.07 | 0.05 | 88 | 1005.2 |
| 20260902194024 | 61 | 166 | 7.0 | 13.0 | 0.03 | 0.06 | 0.04 | 87 | 1005.3 |
| 20260902193523 | 61 | 159 | 8.0 | 13.0 | 0.03 | 0.06 | 0.04 | 86 | 1005.2 |
| 20260902193056 | 61 | 123 | 7.0 | 13.0 | 0.02 | 0.05 | 0.03 | 86 | 1005.1 |
| 20260902192524 | 61 | 138 | 6.0 | 18.0 | 0.02 | 0.05 | 0.03 | 85 | 1005.1 |
| 20260902192031 | 61 | 147 | 5.0 | 18.0 | 0.02 | 0.05 | 0.03 | 85 | 1005.2 |
| 20260902191555 | 62 | 195 | 10.0 | 17.0 | 0.01 | 0.04 | 0.02 | 84 | 1005.4 |
| 20260902191029 | 62 | 150 | 8.0 | 19.0 | 0.01 | 0.04 | 0.02 | 85 | 1005.5 |
| 20260902190525 | 62 | 163 | 6.0 | 19.0 | 0.01 | 0.04 | 0.02 | 84 | 1005.5 |
| 20260902190053 | 62 | 131 | 9.0 | 19.0 | 0.01 | 0.04 | 0.02 | 83 | 1005.6 |
| 20260902185524 | 62 | 130 | 8.0 | 14.0 | 0.01 | 0.04 | 0.02 | 84 | 1005.6 |
| 20260902185024 | 63 | 126 | 6.0 | 14.0 | 0.01 | 0.04 | 0.02 | 83 | 1005.7 |
| 20260902184550 | 63 | 173 | 8.0 | 19.0 | 0.01 | 0.03 | 0.01 | 81 | 1005.5 |
| 20260902184030 | 63 | 134 | 10.0 | 19.0 | 0.01 | 0.03 | 0.01 | 80 | 1005.6 |
| 20260902183523 | 63 | 166 | 10.0 | 20.0 | 0.01 | 0.03 | 0.01 | 79 | 1005.7 |
| 20260902183105 | 63 | 178 | 8.0 | 20.0 | 0.01 | 0.03 | 0.01 | 80 | 1005.7 |
| 20260902182526 | 63 | 173 | 12.0 | 17.0 | 0.01 | 0.03 | 0.01 | 79 | 1005.7 |
| 20260902182029 | 64 | 142 | 7.0 | 14.0 | 0.01 | 0.03 | 0.01 | 81 | 1005.7 |
| 20260902181549 | 63 | 131 | 7.0 | 11.0 | 0.01 | 0.03 | 0.01 | 80 | 1005.7 |
| 20260902181023 | 63 | 149 | 7.0 | 13.0 | 0.01 | 0.03 | 0.01 | 81 | 1005.9 |
| 20260902180525 | 63 | 163 | 6.0 | 13.0 | 0.01 | 0.03 | 0.01 | 82 | 1005.8 |
| 20260902180045 | 63 | 182 | 7.0 | 12.0 | 0.01 | 0.03 | 0.01 | 81 | 1005.9 |
| 20260902175523 | 63 | 174 | 7.0 | 16.0 | 0.01 | 0.03 | 0.01 | 81 | 1005.8 |
| 20260902175023 | 63 | 164 | 10.0 | 17.0 | 0.01 | 0.03 | 0.01 | 80 | 1005.9 |
| 20260902174604 | 63 | 171 | 10.0 | 20.0 | 0.00 | 0.02 | 0.00 | 80 | 1005.9 |
| 20260902174029 | 63 | 165 | 13.0 | 20.0 | 0.00 | 0.02 | 0.00 | 79 | 1005.8 |
| 20260902173529 | 64 | 190 | 8.0 | 16.0 | 0.00 | 0.02 | 0.00 | 79 | 1005.9 |
| 20260902173052 | 64 | 153 | 8.0 | 16.0 | 0.00 | 0.02 | 0.00 | 78 | 1006.0 |
| 20260902172524 | 64 | 149 | 6.0 | 14.0 | 0.00 | 0.02 | 0.00 | 79 | 1006.0 |
| 20260902172024 | 63 | 183 | 5.0 | 12.0 | 0.00 | 0.02 | 0.00 | 80 | 1006.0 |
| 20260902171556 | 63 | 194 | 4.0 | 6.0 | 0.00 | 0.02 | 0.00 | 83 | 1006.0 |
| 20260902171022 | 62 | 215 | 1.0 | 3.0 | 0.00 | 0.02 | 0.00 | 83 | 1006.0 |
| 20260902170522 | 62 | 228 | 0.0 | 4.0 | 0.00 | 0.02 | 0.00 | 83 | 1006.0 |
| 20260902170053 | 62 | 0 | 2.0 | 4.0 | 0.00 | 0.02 | 0.00 | 84 | 1006.2 |
| 20260902165524 | 62 | 143 | 2.0 | 4.0 | 0.00 | 0.02 | 0.00 | 84 | 1006.1 |
| 20260902165031 | 62 | 211 | 0.0 | 2.0 | 0.00 | 0.02 | 0.00 | 86 | 1006.2 |
| 20260902164550 | 61 | 261 | 1.0 | 2.0 | 0.00 | 0.02 | 0.00 | 85 | 1006.1 |
| 20260902164024 | 61 | 0 | 0.0 | 2.0 | 0.00 | 0.02 | 0.00 | 85 | 1006.2 |
| 20260902163524 | 61 | 0 | 0.0 | 2.0 | 0.00 | 0.02 | 0.00 | 86 | 1006.2 |
| 20260902163100 | 60 | 299 | 0.0 | 2.0 | 0.00 | 0.02 | 0.00 | 88 | 1006.2 |
| 20260902162526 | 60 | 296 | 1.0 | 2.0 | 0.00 | 0.02 | 0.00 | 89 | 1006.3 |
| 20260902162030 | 60 | 0 | 0.0 | 1.0 | 0.00 | 0.02 | 0.00 | 90 | 1006.3 |
| 20260902161553 | 60 | 269 | 0.0 | 1.0 | 0.00 | 0.02 | 0.00 | 91 | 1006.4 |
| 20260902161029 | 60 | 269 | 0.0 | 1.0 | 0.00 | 0.02 | 0.00 | 90 | 1006.4 |
| 20260902160529 | 59 | 0 | 0.0 | 1.0 | 0.00 | 0.02 | 0.00 | 91 | 1006.5 |
| 20260902160049 | 59 | 0 | 0.0 | 1.0 | 0.00 | 0.02 | 0.00 | 90 | 1006.6 |
| 20260902155525 | 59 | 0 | 0.0 | 1.0 | 0.00 | 0.02 | 0.00 | 90 | 1006.6 |
| 20260902155032 | 59 | 0 | 0.0 | 1.0 | 0.00 | 0.02 | 0.00 | 90 | 1006.6 |
| 20260902154550 | 59 | 0 | 0.0 | 1.0 | 0.00 | 0.02 | 0.00 | 90 | 1006.6 |
| 20260902154027 | 59 | 211 | 0.0 | 1.0 | 0.00 | 0.02 | 0.00 | 90 | 1006.7 |
| 20260902153527 | 59 | 0 | 0.0 | 2.0 | 0.00 | 0.02 | 0.00 | 90 | 1006.8 |
| 20260902153059 | 59 | 0 | 0.0 | 2.0 | 0.00 | 0.02 | 0.00 | 89 | 1006.8 |
| 20260902152527 | 59 | 163 | 1.0 | 5.0 | 0.00 | 0.02 | 0.00 | 90 | 1006.9 |
| 20260902152030 | 59 | 207 | 1.0 | 6.0 | 0.00 | 0.02 | 0.00 | 90 | 1007.0 |
| 20260902151555 | 59 | 188 | 1.0 | 6.0 | 0.00 | 0.02 | 0.00 | 90 | 1007.1 |
| 20260902151027 | 59 | 200 | 1.0 | 5.0 | 0.00 | 0.02 | 0.00 | 90 | 1007.1 |
| 20260902150524 | 59 | 198 | 3.0 | 7.0 | 0.00 | 0.02 | 0.00 | 90 | 1007.1 |
| 20260902150049 | 58 | 192 | 3.0 | 7.0 | 0.00 | 0.02 | 0.00 | 91 | 1007.4 |
| 20260902145524 | 58 | 261 | 0.0 | 1.0 | 0.00 | 0.02 | 0.00 | 91 | 1007.4 |
| 20260902145029 | 58 | 0 | 0.0 | 1.0 | 0.00 | 0.02 | 0.00 | 91 | 1007.4 |
| 20260902144549 | 58 | 0 | 0.0 | 2.0 | 0.00 | 0.02 | 0.00 | 91 | 1007.5 |
| 20260902144027 | 58 | 183 | 0.0 | 2.0 | 0.00 | 0.02 | 0.00 | 91 | 1007.6 |
| 20260902143526 | 58 | 154 | 0.0 | 4.0 | 0.00 | 0.02 | 0.00 | 91 | 1007.6 |
| 20260902143052 | 58 | 145 | 2.0 | 5.0 | 0.00 | 0.02 | 0.00 | 91 | 1007.7 |
| 20260902142525 | 58 | 124 | 3.0 | 5.0 | 0.00 | 0.02 | 0.00 | 91 | 1007.6 |
| 20260902142027 | 58 | 185 | 2.0 | 6.0 | 0.00 | 0.02 | 0.00 | 92 | 1007.7 |
| 20260902141548 | 58 | 160 | 3.0 | 8.0 | 0.00 | 0.02 | 0.00 | 92 | 1007.7 |
| 20260902141026 | 58 | 160 | 4.0 | 9.0 | 0.00 | 0.02 | 0.00 | 92 | 1007.6 |
| 20260902140524 | 58 | 195 | 5.0 | 9.0 | 0.00 | 0.02 | 0.00 | 92 | 1007.6 |
| 20260902140047 | 58 | 108 | 5.0 | 12.0 | 0.00 | 0.02 | 0.00 | 92 | 1007.6 |
| 20260902135526 | 58 | 207 | 4.0 | 14.0 | 0.00 | 0.02 | 0.00 | 93 | 1007.6 |
| 20260902135027 | 58 | 153 | 7.0 | 14.0 | 0.00 | 0.02 | 0.00 | 93 | 1007.7 |
| 20260902134558 | 58 | 134 | 7.0 | 13.0 | 0.00 | 0.02 | 0.00 | 94 | 1007.9 |
| 20260902134029 | 58 | 176 | 5.0 | 10.0 | 0.00 | 0.02 | 0.00 | 95 | 1007.9 |
| 20260902133526 | 58 | 154 | 6.0 | 11.0 | 0.00 | 0.02 | 0.00 | 95 | 1008.1 |
| 20260902133053 | 57 | 169 | 6.0 | 11.0 | 0.00 | 0.02 | 0.00 | 96 | 1008.1 |
| 20260902132525 | 57 | 179 | 6.0 | 10.0 | 0.00 | 0.02 | 0.00 | 97 | 1008.1 |
| 20260902132028 | 57 | 150 | 5.0 | 10.0 | 0.00 | 0.02 | 0.00 | 97 | 1008.2 |
| 20260902131557 | 57 | 198 | 5.0 | 8.0 | 0.00 | 0.02 | 0.00 | 98 | 1008.2 |
| 20260902131027 | 57 | 206 | 2.0 | 6.0 | 0.00 | 0.02 | 0.00 | 98 | 1008.2 |
| 20260902130526 | 56 | 157 | 4.0 | 9.0 | 0.00 | 0.02 | 0.00 | 98 | 1008.2 |
| 20260902130056 | 56 | 149 | 4.0 | 9.0 | 0.00 | 0.02 | 0.00 | 98 | 1008.2 |
| 20260902125527 | 56 | 121 | 2.0 | 6.0 | 0.00 | 0.02 | 0.00 | 98 | 1008.3 |
| 20260902125030 | 55 | 137 | 2.0 | 6.0 | 0.00 | 0.02 | 0.00 | 98 | 1008.2 |
| 20260902124548 | 55 | 0 | 1.0 | 5.0 | 0.00 | 0.02 | 0.00 | 98 | 1008.3 |
| 20260902124024 | 55 | 0 | 0.0 | 2.0 | 0.00 | 0.02 | 0.00 | 98 | 1008.5 |
| 20260902123528 | 55 | 138 | 0.0 | 2.0 | 0.00 | 0.02 | 0.00 | 98 | 1008.3 |
| 20260902123105 | 55 | 123 | 0.0 | 2.0 | 0.00 | 0.02 | 0.00 | 98 | 1008.5 |
| 20260902122531 | 55 | 209 | 0.0 | 1.0 | 0.00 | 0.02 | 0.00 | 98 | 1008.5 |
| 20260902122026 | 55 | 0 | 0.0 | 0.0 | 0.00 | 0.02 | 0.00 | 98 | 1008.6 |
| 20260902121559 | 55 | 0 | 0.0 | 0.0 | 0.00 | 0.02 | 0.00 | 98 | 1008.7 |
| 20260902121027 | 55 | 0 | 0.0 | 0.0 | 0.00 | 0.02 | 0.00 | 98 | 1008.7 |
| 20260902120527 | 55 | 0 | 0.0 | 0.0 | 0.00 | 0.02 | 0.00 | 98 | 1008.8 |
| 20260902115525 | 54 | 0 | 0.0 | 0.0 | 0.00 | 0.02 | 0.00 | 98 | 1008.9 |
| 20260902115028 | 54 | 0 | 0.0 | 0.0 | 0.00 | 0.02 | 0.00 | 98 | 1009.0 |
| 20260902114548 | 55 | 0 | 0.0 | 0.0 | 0.00 | 0.02 | 0.00 | 98 | 1009.0 |
| 20260902114027 | 55 | 0 | 0.0 | 0.0 | 0.00 | 0.02 | 0.00 | 98 | 1009.0 |
| 20260902113524 | 54 | 0 | 0.0 | 0.0 | 0.00 | 0.02 | 0.00 | 98 | 1009.0 |
| 20260902113054 | 54 | 0 | 0.0 | 0.0 | 0.00 | 0.02 | 0.00 | 98 | 1009.0 |
| 20260902112527 | 54 | 0 | 0.0 | 0.0 | 0.00 | 0.02 | 0.00 | 98 | 1009.1 |
| 20260902112028 | 54 | 0 | 0.0 | 0.0 | 0.00 | 0.02 | 0.00 | 98 | 1009.2 |
| 20260902111558 | 54 | 0 | 0.0 | 0.0 | 0.00 | 0.02 | 0.00 | 98 | 1009.2 |
| 20260902111024 | 54 | 0 | 0.0 | 0.0 | 0.00 | 0.02 | 0.00 | 98 | 1009.2 |
| 20260902110527 | 54 | 0 | 0.0 | 0.0 | 0.00 | 0.02 | 0.00 | 98 | 1009.3 |
| 20260902110048 | 54 | 0 | 0.0 | 0.0 | 0.00 | 0.02 | 0.00 | 98 | 1009.3 |
| 20260902105530 | 54 | 0 | 0.0 | 1.0 | 0.00 | 0.02 | 0.00 | 98 | 1009.3 |
| 20260902105024 | 54 | 0 | 0.0 | 1.0 | 0.00 | 0.02 | 0.00 | 98 | 1009.3 |
| 20260902104548 | 54 | 0 | 0.0 | 0.0 | 0.00 | 0.02 | 0.00 | 98 | 1009.4 |
| 20260902104027 | 54 | 0 | 0.0 | 1.0 | 0.00 | 0.02 | 0.00 | 98 | 1009.3 |
| 20260902103528 | 54 | 0 | 0.0 | 1.0 | 0.00 | 0.02 | 0.00 | 98 | 1009.3 |
| 20260902103047 | 54 | 119 | 0.0 | 1.0 | 0.00 | 0.02 | 0.00 | 98 | 1009.4 |
| 20260902102527 | 54 | 0 | 0.0 | 0.0 | 0.00 | 0.02 | 0.00 | 98 | 1009.5 |
| 20260902102030 | 53 | 0 | 0.0 | 0.0 | 0.00 | 0.02 | 0.00 | 97 | 1009.5 |
| 20260902101550 | 54 | 0 | 0.0 | 0.0 | 0.00 | 0.02 | 0.00 | 97 | 1009.4 |
| 20260902101030 | 54 | 0 | 0.0 | 0.0 | 0.00 | 0.02 | 0.00 | 97 | 1009.4 |
| 20260902100529 | 54 | 0 | 0.0 | 1.0 | 0.00 | 0.02 | 0.00 | 97 | 1009.4 |
| 20260902095526 | 55 | 0 | 0.0 | 1.0 | 0.00 | 0.02 | 0.00 | 97 | 1009.4 |
| 20260902095027 | 55 | 0 | 0.0 | 1.0 | 0.00 | 0.02 | 0.00 | 98 | 1009.4 |
| 20260902094546 | 55 | 119 | 0.0 | 1.0 | 0.00 | 0.02 | 0.00 | 98 | 1009.5 |
| 20260902094026 | 55 | 119 | 0.0 | 1.0 | 0.00 | 0.02 | 0.00 | 97 | 1009.6 |
| 20260902093527 | 55 | 0 | 0.0 | 1.0 | 0.00 | 0.02 | 0.00 | 97 | 1009.6 |
| 20260902093050 | 55 | 0 | 0.0 | 1.0 | 0.00 | 0.02 | 0.00 | 97 | 1009.6 |
| 20260902092524 | 55 | 0 | 0.0 | 1.0 | 0.00 | 0.02 | 0.00 | 97 | 1009.6 |
| 20260902092025 | 55 | 0 | 0.0 | 1.0 | 0.00 | 0.02 | 0.00 | 97 | 1009.7 |
| 20260902091552 | 55 | 0 | 0.0 | 1.0 | 0.00 | 0.02 | 0.00 | 97 | 1009.8 |
| 20260902091026 | 55 | 0 | 1.0 | 1.0 | 0.00 | 0.02 | 0.00 | 98 | 1009.9 |
| 20260902090524 | 55 | 0 | 0.0 | 1.0 | 0.00 | 0.02 | 0.00 | 97 | 1009.9 |
| 20260902090055 | 55 | 0 | 0.0 | 1.0 | 0.00 | 0.02 | 0.00 | 98 | 1009.9 |
| 20260902085526 | 55 | 0 | 0.0 | 1.0 | 0.00 | 0.02 | 0.00 | 97 | 1009.8 |
| 20260902085027 | 55 | 119 | 0.0 | 2.0 | 0.00 | 0.02 | 0.00 | 97 | 1009.9 |
| 20260902084550 | 55 | 0 | 0.0 | 2.0 | 0.00 | 0.02 | 0.00 | 97 | 1010.1 |
| 20260902084027 | 55 | 86 | 0.0 | 1.0 | 0.00 | 0.02 | 0.00 | 97 | 1010.2 |
| 20260902083523 | 55 | 0 | 0.0 | 0.0 | 0.00 | 0.02 | 0.00 | 97 | 1010.3 |
| 20260902083049 | 55 | 315 | 0.0 | 2.0 | 0.00 | 0.02 | 0.00 | 97 | 1010.2 |
| 20260902082524 | 55 | 0 | 0.0 | 2.0 | 0.00 | 0.02 | 0.00 | 97 | 1010.2 |
| 20260902082029 | 55 | 315 | 1.0 | 2.0 | 0.00 | 0.02 | 0.00 | 97 | 1010.3 |
| 20260902081549 | 55 | 22 | 0.0 | 1.0 | 0.00 | 0.02 | 0.00 | 97 | 1010.3 |
| 20260902081027 | 55 | 0 | 0.0 | 1.0 | 0.00 | 0.02 | 0.00 | 97 | 1010.4 |
| 20260902080527 | 55 | 42 | 0.0 | 1.0 | 0.00 | 0.02 | 0.00 | 97 | 1010.4 |
| 20260902080055 | 55 | 42 | 0.0 | 1.0 | 0.00 | 0.02 | 0.00 | 97 | 1010.5 |
| 20260902075527 | 55 | 340 | 0.0 | 1.0 | 0.00 | 0.02 | 0.00 | 97 | 1010.7 |
| 20260902075026 | 54 | 340 | 0.0 | 1.0 | 0.00 | 0.02 | 0.00 | 97 | 1010.7 |
| 20260902074554 | 54 | 0 | 0.0 | 1.0 | 0.00 | 0.02 | 0.00 | 97 | 1010.7 |
| 20260902074025 | 54 | 0 | 0.0 | 1.0 | 0.00 | 0.02 | 0.00 | 97 | 1010.8 |
| 20260902073524 | 54 | 0 | 0.0 | 1.0 | 0.00 | 0.02 | 0.00 | 97 | 1010.7 |
| 20260902073046 | 54 | 340 | 0.0 | 1.0 | 0.00 | 0.02 | 0.00 | 97 | 1010.6 |
| 20260902072526 | 54 | 340 | 0.0 | 1.0 | 0.00 | 0.02 | 0.00 | 97 | 1010.6 |
| 20260902072030 | 54 | 0 | 0.0 | 0.0 | 0.00 | 0.02 | 0.00 | 97 | 1010.7 |
| 20260902071545 | 54 | 0 | 0.0 | 0.0 | 0.00 | 0.02 | 0.00 | 97 | 1010.6 |
| 20260902071028 | 54 | 0 | 0.0 | 1.0 | 0.00 | 0.02 | 0.00 | 96 | 1010.7 |
| 20260902070528 | 55 | 0 | 0.0 | 1.0 | 0.00 | 0.02 | 0.00 | 97 | 1010.6 |
| 20260902070055 | 55 | 0 | 0.0 | 1.0 | 0.00 | 0.02 | 0.00 | 97 | 1010.6 |
| 20260902065529 | 54 | 0 | 0.0 | 1.0 | 0.00 | 0.02 | 0.02 | 97 | 1010.7 |
| 20260902065024 | 54 | 0 | 0.0 | 1.0 | 0.00 | 0.02 | 0.02 | 96 | 1010.7 |
| 20260902064554 | 54 | 0 | 0.0 | 1.0 | 0.00 | 0.02 | 0.02 | 96 | 1010.5 |
| 20260902064025 | 55 | 109 | 0.0 | 1.0 | 0.00 | 0.02 | 0.02 | 96 | 1010.5 |
| 20260902063524 | 55 | 109 | 0.0 | 1.0 | 0.00 | 0.02 | 0.02 | 97 | 1010.5 |
| 20260902063056 | 55 | 0 | 0.0 | 1.0 | 0.00 | 0.02 | 0.02 | 96 | 1010.5 |
| 20260902062530 | 55 | 0 | 0.0 | 0.0 | 0.00 | 0.02 | 0.02 | 96 | 1010.3 |
| 20260902062026 | 55 | 0 | 0.0 | 1.0 | 0.00 | 0.02 | 0.02 | 96 | 1010.3 |
| 20260902061555 | 55 | 0 | 0.0 | 1.0 | 0.00 | 0.02 | 0.02 | 96 | 1010.4 |
| 20260902061052 | 55 | 0 | 0.0 | 0.0 | 0.00 | 0.02 | 0.02 | 96 | 1010.4 |
| 20260902060523 | 55 | 0 | 0.0 | 0.0 | 0.00 | 0.02 | 0.02 | 96 | 1010.6 |
| 20260902060050 | 55 | 0 | 0.0 | 0.0 | 0.00 | 0.02 | 0.02 | 95 | 1010.8 |
| 20260902055524 | 56 | 0 | 0.0 | 0.0 | 0.00 | 0.02 | 0.02 | 95 | 1010.7 |
| 20260902055025 | 56 | 0 | 0.0 | 1.0 | 0.00 | 0.02 | 0.02 | 95 | 1010.7 |
| 20260902054549 | 57 | 0 | 0.0 | 1.0 | 0.00 | 0.02 | 0.02 | 96 | 1010.7 |
| 20260902054027 | 57 | 109 | 0.0 | 1.0 | 0.00 | 0.02 | 0.02 | 96 | 1010.8 |
| 20260902053526 | 57 | 109 | 0.0 | 1.0 | 0.00 | 0.02 | 0.02 | 96 | 1010.9 |
| 20260902053051 | 58 | 0 | 0.0 | 0.0 | 0.00 | 0.02 | 0.02 | 96 | 1010.9 |
| 20260902052533 | 58 | 0 | 0.0 | 0.0 | 0.00 | 0.02 | 0.02 | 96 | 1011.0 |
| 20260902052024 | 58 | 0 | 0.0 | 0.0 | 0.00 | 0.02 | 0.02 | 96 | 1011.0 |
| 20260902051548 | 58 | 0 | 0.0 | 0.0 | 0.00 | 0.02 | 0.02 | 95 | 1011.1 |
| 20260902051024 | 58 | 0 | 0.0 | 1.0 | 0.00 | 0.02 | 0.02 | 96 | 1011.2 |
| 20260902050527 | 58 | 0 | 0.0 | 1.0 | 0.00 | 0.02 | 0.02 | 96 | 1011.2 |
| 20260902050100 | 58 | 109 | 0.0 | 1.0 | 0.00 | 0.02 | 0.02 | 96 | 1011.2 |
| 20260902045526 | 58 | 109 | 0.0 | 1.0 | 0.00 | 0.02 | 0.02 | 95 | 1011.3 |
| 20260902045024 | 58 | 116 | 0.0 | 1.0 | 0.00 | 0.02 | 0.02 | 95 | 1011.3 |
| 20260902044544 | 58 | 0 | 0.0 | 1.0 | 0.00 | 0.02 | 0.02 | 95 | 1011.3 |
| 20260902044025 | 58 | 116 | 0.0 | 1.0 | 0.00 | 0.02 | 0.02 | 95 | 1011.2 |
| 20260902043528 | 58 | 0 | 0.0 | 1.0 | 0.00 | 0.02 | 0.02 | 95 | 1011.2 |
| 20260902043052 | 58 | 0 | 0.0 | 1.0 | 0.00 | 0.02 | 0.02 | 95 | 1011.1 |
| 20260902042531 | 58 | 0 | 0.0 | 0.0 | 0.00 | 0.02 | 0.02 | 94 | 1011.1 |
| 20260902042024 | 58 | 0 | 0.0 | 0.0 | 0.00 | 0.02 | 0.02 | 94 | 1011.2 |
| 20260902041549 | 58 | 0 | 0.0 | 1.0 | 0.00 | 0.02 | 0.02 | 94 | 1011.1 |
| 20260902041023 | 58 | 0 | 0.0 | 1.0 | 0.00 | 0.02 | 0.02 | 94 | 1011.2 |
| 20260902040524 | 58 | 116 | 0.0 | 1.0 | 0.00 | 0.02 | 0.02 | 94 | 1011.2 |
| 20260902040050 | 58 | 117 | 0.0 | 1.0 | 0.00 | 0.02 | 0.02 | 93 | 1011.2 |
| 20260902035523 | 58 | 116 | 0.0 | 1.0 | 0.00 | 0.02 | 0.02 | 93 | 1011.1 |
| 20260902035023 | 59 | 0 | 0.0 | 2.0 | 0.00 | 0.02 | 0.02 | 92 | 1011.1 |
| 20260902034546 | 59 | 116 | 0.0 | 2.0 | 0.00 | 0.02 | 0.02 | 91 | 1011.0 |
| 20260902034027 | 60 | 116 | 1.0 | 2.0 | 0.00 | 0.02 | 0.02 | 90 | 1011.1 |
| 20260902033526 | 60 | 101 | 0.0 | 1.0 | 0.00 | 0.02 | 0.02 | 90 | 1010.9 |
| 20260902033050 | 60 | 0 | 0.0 | 0.0 | 0.00 | 0.02 | 0.02 | 89 | 1011.0 |
| 20260902032524 | 61 | 0 | 0.0 | 1.0 | 0.00 | 0.02 | 0.02 | 89 | 1011.0 |
| 20260902032029 | 61 | 0 | 0.0 | 1.0 | 0.00 | 0.02 | 0.02 | 89 | 1011.0 |
| 20260902031558 | 61 | 0 | 0.0 | 3.0 | 0.01 | 0.02 | 0.02 | 89 | 1011.0 |
| 20260902031029 | 61 | 84 | 0.0 | 3.0 | 0.01 | 0.02 | 0.02 | 89 | 1011.1 |
| 20260902030523 | 61 | 290 | 0.0 | 3.0 | 0.01 | 0.02 | 0.02 | 89 | 1011.0 |
| 20260902025526 | 61 | 0 | 0.0 | 3.0 | 0.01 | 0.02 | 0.02 | 90 | 1010.9 |
| 20260902025026 | 61 | 264 | 0.0 | 2.0 | 0.01 | 0.02 | 0.02 | 90 | 1010.9 |
| 20260902024556 | 61 | 271 | 0.0 | 1.0 | 0.01 | 0.02 | 0.02 | 90 | 1010.8 |
| 20260902024025 | 62 | 0 | 0.0 | 2.0 | 0.01 | 0.02 | 0.02 | 90 | 1010.9 |
| 20260902023524 | 62 | 0 | 0.0 | 2.0 | 0.01 | 0.02 | 0.02 | 89 | 1010.8 |
| 20260902023049 | 62 | 250 | 0.0 | 3.0 | 0.01 | 0.02 | 0.02 | 88 | 1010.9 |
| 20260902022525 | 62 | 220 | 0.0 | 8.0 | 0.01 | 0.02 | 0.02 | 87 | 1010.8 |
| 20260902022024 | 63 | 237 | 3.0 | 8.0 | 0.01 | 0.02 | 0.02 | 86 | 1010.9 |
| 20260902021558 | 64 | 254 | 4.0 | 9.0 | 0.00 | 0.01 | 0.01 | 84 | 1010.9 |
| 20260902021024 | 64 | 291 | 2.0 | 10.0 | 0.00 | 0.01 | 0.01 | 82 | 1011.0 |
| 20260902020527 | 64 | 225 | 5.0 | 10.0 | 0.00 | 0.01 | 0.01 | 82 | 1010.9 |
| 20260902020057 | 64 | 274 | 3.0 | 8.0 | 0.00 | 0.01 | 0.01 | 82 | 1011.0 |
| 20260902015525 | 65 | 242 | 3.0 | 7.0 | 0.00 | 0.01 | 0.01 | 82 | 1010.9 |
| 20260902015025 | 65 | 223 | 2.0 | 6.0 | 0.00 | 0.01 | 0.01 | 81 | 1011.0 |
| 20260902014548 | 65 | 189 | 1.0 | 6.0 | 0.00 | 0.01 | 0.01 | 80 | 1010.9 |
| 20260902014023 | 65 | 213 | 3.0 | 8.0 | 0.00 | 0.01 | 0.01 | 79 | 1010.9 |
| 20260902013523 | 66 | 217 | 2.0 | 8.0 | 0.00 | 0.01 | 0.01 | 79 | 1010.9 |
| 20260902013048 | 66 | 242 | 5.0 | 8.0 | 0.00 | 0.01 | 0.01 | 78 | 1010.7 |
| 20260902012524 | 66 | 0 | 1.0 | 7.0 | 0.00 | 0.01 | 0.01 | 80 | 1010.8 |
| 20260902012024 | 65 | 217 | 1.0 | 7.0 | 0.00 | 0.01 | 0.01 | 81 | 1010.8 |
| 20260902011545 | 65 | 236 | 3.0 | 6.0 | 0.00 | 0.01 | 0.01 | 81 | 1010.8 |
| 20260902011029 | 65 | 246 | 1.0 | 5.0 | 0.00 | 0.01 | 0.01 | 82 | 1010.7 |
| 20260902010528 | 64 | 184 | 2.0 | 5.0 | 0.00 | 0.01 | 0.01 | 81 | 1010.6 |
| 20260902010049 | 64 | 223 | 1.0 | 4.0 | 0.00 | 0.01 | 0.01 | 82 | 1010.7 |
| 20260902005527 | 64 | 256 | 1.0 | 4.0 | 0.00 | 0.01 | 0.01 | 82 | 1010.6 |
| 20260902005026 | 64 | 213 | 1.0 | 5.0 | 0.00 | 0.01 | 0.01 | 82 | 1010.8 |
| 20260902004550 | 64 | 202 | 2.0 | 5.0 | 0.00 | 0.01 | 0.01 | 82 | 1010.7 |
| 20260902004024 | 64 | 257 | 2.0 | 12.0 | 0.00 | 0.01 | 0.01 | 82 | 1010.8 |
| 20260902003525 | 64 | 207 | 1.0 | 12.0 | 0.00 | 0.01 | 0.01 | 83 | 1010.8 |
| 20260902003048 | 64 | 269 | 4.0 | 9.0 | 0.00 | 0.01 | 0.01 | 82 | 1010.9 |
| 20260902002527 | 64 | 316 | 2.0 | 12.0 | 0.00 | 0.01 | 0.01 | 82 | 1010.9 |
| 20260902002031 | 64 | 296 | 5.0 | 13.0 | 0.00 | 0.01 | 0.01 | 80 | 1010.9 |
| 20260902001554 | 65 | 273 | 5.0 | 13.0 | 0.00 | 0.01 | 0.01 | 80 | 1010.8 |
| 20260902001024 | 66 | 264 | 4.0 | 12.0 | 0.00 | 0.01 | 0.01 | 79 | 1010.8 |
| 20260902000527 | 66 | 259 | 5.0 | 11.0 | 0.00 | 0.01 | 0.01 | 78 | 1010.8 |
| 20260902000050 | 65 | 199 | 4.0 | 10.0 | 0.00 | 0.01 | 0.01 | 79 | 1010.6 |
| 20260901235529 | 65 | 175 | 3.0 | 7.0 | 0.01 | 0.01 | 0.01 | 80 | 1010.7 |
| 20260901235029 | 66 | 211 | 3.0 | 7.0 | 0.01 | 0.01 | 0.01 | 79 | 1010.8 |
| 20260901234554 | 66 | 211 | 3.0 | 9.0 | 0.01 | 0.01 | 0.01 | 79 | 1010.8 |
| 20260901234029 | 66 | 218 | 4.0 | 9.0 | 0.01 | 0.01 | 0.01 | 79 | 1010.9 |
| 20260901233528 | 66 | 280 | 3.0 | 8.0 | 0.01 | 0.01 | 0.01 | 79 | 1010.8 |
| 20260901233051 | 66 | 250 | 4.0 | 7.0 | 0.01 | 0.01 | 0.01 | 80 | 1011.0 |
| 20260901232527 | 65 | 267 | 2.0 | 7.0 | 0.01 | 0.01 | 0.01 | 82 | 1010.9 |
| 20260901232027 | 65 | 237 | 2.0 | 7.0 | 0.01 | 0.01 | 0.01 | 85 | 1010.9 |
| 20260901231547 | 65 | 92 | 4.0 | 6.0 | 0.01 | 0.01 | 0.01 | 85 | 1011.0 |
| 20260901231028 | 65 | 110 | 1.0 | 6.0 | 0.01 | 0.01 | 0.01 | 87 | 1010.9 |
| 20260901230528 | 65 | 116 | 3.0 | 6.0 | 0.01 | 0.01 | 0.01 | 86 | 1010.8 |
| 20260901225529 | 65 | 0 | 0.0 | 3.0 | 0.00 | 0.00 | 0.00 | 84 | 1010.9 |
| 20260901225029 | 65 | 243 | 2.0 | 6.0 | 0.00 | 0.00 | 0.00 | 84 | 1010.9 |
| 20260901224553 | 65 | 231 | 2.0 | 7.0 | 0.00 | 0.00 | 0.00 | 84 | 1010.8 |
| 20260901224031 | 65 | 161 | 4.0 | 7.0 | 0.00 | 0.00 | 0.00 | 83 | 1010.8 |
| 20260901223527 | 65 | 150 | 3.0 | 7.0 | 0.00 | 0.00 | 0.00 | 82 | 1010.8 |
| 20260901223101 | 65 | 174 | 2.0 | 7.0 | 0.00 | 0.00 | 0.00 | 83 | 1010.8 |
| 20260901222528 | 64 | 149 | 2.0 | 7.0 | 0.00 | 0.00 | 0.00 | 84 | 1010.9 |
| 20260901222028 | 64 | 206 | 4.0 | 7.0 | 0.00 | 0.00 | 0.00 | 84 | 1010.9 |
| 20260901221548 | 64 | 148 | 3.0 | 11.0 | 0.00 | 0.00 | 0.00 | 84 | 1010.9 |
| 20260901221031 | 64 | 189 | 6.0 | 11.0 | 0.00 | 0.00 | 0.00 | 81 | 1010.9 |
| 20260901220530 | 65 | 188 | 5.0 | 9.0 | 0.00 | 0.00 | 0.00 | 80 | 1010.8 |
| 20260901220111 | 65 | 123 | 6.0 | 9.0 | 0.00 | 0.00 | 0.00 | 79 | 1010.8 |
| 20260901215527 | 65 | 136 | 5.0 | 9.0 | 0.00 | 0.00 | 0.00 | 80 | 1010.8 |
| 20260901215028 | 65 | 171 | 3.0 | 7.0 | 0.00 | 0.00 | 0.00 | 81 | 1010.9 |
| 20260901214549 | 64 | 119 | 1.0 | 5.0 | 0.00 | 0.00 | 0.00 | 82 | 1010.9 |
| 20260901214029 | 64 | 286 | 2.0 | 5.0 | 0.00 | 0.00 | 0.00 | 84 | 1010.9 |
| 20260901213528 | 63 | 256 | 0.0 | 1.0 | 0.00 | 0.00 | 0.00 | 86 | 1011.0 |
| 20260901213051 | 63 | 19 | 0.0 | 2.0 | 0.00 | 0.00 | 0.00 | 85 | 1011.0 |
| 20260901212528 | 63 | 278 | 0.0 | 4.0 | 0.00 | 0.00 | 0.00 | 85 | 1011.2 |
| 20260901212029 | 63 | 0 | 1.0 | 4.0 | 0.00 | 0.00 | 0.00 | 85 | 1011.2 |
| 20260901211544 | 63 | 259 | 1.0 | 12.0 | 0.00 | 0.00 | 0.00 | 84 | 1011.3 |
| 20260901211027 | 63 | 285 | 4.0 | 12.0 | 0.00 | 0.00 | 0.00 | 83 | 1011.3 |
| 20260901210527 | 64 | 269 | 3.0 | 9.0 | 0.00 | 0.00 | 0.00 | 81 | 1011.3 |
| 20260901210049 | 65 | 243 | 4.0 | 11.0 | 0.00 | 0.00 | 0.00 | 79 | 1011.3 |
| 20260901205528 | 66 | 173 | 6.0 | 11.0 | 0.00 | 0.00 | 0.00 | 78 | 1011.1 |
| 20260901205028 | 66 | 140 | 6.0 | 11.0 | 0.00 | 0.00 | 0.00 | 78 | 1011.1 |